Location: Holiday Acres Laynes 2 Mobile Home Park
(26.7249°N, 81.8671°W)
Time: 06:57:28
(UTC+00:00)

Cosmos 1606 - Pass Details

Date: 25 November 2020
Orbit: 503 x 527 km, 82.5° (Epoch: 21 January)

Event Time Altitude Azimuth Distance (km) Brightness Sun altitude
Rises 22:57:53 0° 189° (S) 2,643 6.7 -5.7°
Reaches altitude 10° 23:00:01 10° 191° (S) 1,760 5.9 -6.2°
Maximum altitude 23:03:52 71° 276° (W) 558 3.1 -7.0°
Drops below altitude 10° 23:07:45 10° 1° (N) 1,772 5.2 -7.8°
Sets 23:09:55 0° 3° (N) 2,664 6.1 -8.2°
